GW2682 Weather Reports


Display with metric or nautical units.
time (UTC)temp
F
wind
direction
speed
MPH
gust
MPH
rain 1hr
in
rain 24hr
in
rain mn
in
humidity
%
barometer
mb
20240617094524 60 238 3.0 7.0 0.00 0.00 0.00 92 1023.5
20240617094508 59 260 1.0 7.0 0.00 0.00 0.00 92 1022.2
20240617093007 59 234 3.0 9.0 0.00 0.00 0.00 92 1022.3
20240617093005 60 237 5.0 9.0 0.00 0.00 0.00 92 1023.5
20240617091508 59 240 2.0 5.0 0.00 0.00 0.00 92 1022.4
20240617091504 60 246 2.0 5.0 0.00 0.00 0.00 92 1023.7
20240617090017 60 242 3.0 8.0 0.00 0.00 0.00 91 1022.4
20240617090003 60 232 3.0 8.0 0.00 0.00 0.00 91 1023.6
20240617084507 60 237 3.0 6.0 0.00 0.00 0.00 90 1022.5
20240617084503 61 262 3.0 6.0 0.00 0.00 0.00 90 1023.7
20240617083008 60 275 3.0 10.0 0.00 0.00 0.00 90 1022.2
20240617083003 61 240 4.0 10.0 0.00 0.00 0.00 90 1023.4
20240617081517 60 229 5.0 10.0 0.00 0.00 0.00 90 1022.1
20240617081503 60 240 4.0 10.0 0.00 0.00 0.00 90 1023.4
20240617080005 60 250 4.0 10.0 0.00 0.00 0.00 90 1022.0
20240617080003 60 235 5.0 10.0 0.00 0.00 0.00 90 1023.2
20240617074505 60 257 5.0 10.0 0.00 0.00 0.00 90 1022.3
20240617074503 60 238 5.0 11.0 0.00 0.00 0.00 90 1023.5
20240617073004 60 240 4.0 8.0 0.00 0.00 0.00 90 1022.5
20240617071506 60 227 3.0 8.0 0.00 0.00 0.00 89 1022.6
20240617071503 60 236 4.0 8.0 0.00 0.00 0.00 89 1023.7
20240617070005 60 246 5.0 12.0 0.00 0.00 0.00 88 1022.7
20240617064510 60 245 5.0 9.0 0.00 0.00 0.00 89 1022.7
20240617064504 61 234 4.0 10.0 0.00 0.00 0.00 89 1023.7
20240617063024 60 228 3.0 8.0 0.00 0.00 0.00 89 1023.7
20240617063010 60 243 3.0 8.0 0.00 0.00 0.00 89 1022.6
20240617061509 60 222 3.0 7.0 0.00 0.00 0.00 90 1022.7
20240617061503 60 221 3.0 7.0 0.00 0.00 0.00 90 1023.8
20240617060021 60 153 2.0 10.0 0.00 0.00 0.00 90 1022.7
20240617060004 61 205 2.0 10.0 0.00 0.00 0.00 90 1023.8
20240617054525 61 187 2.0 6.0 0.00 0.00 0.00 90 1023.9
20240617054506 60 252 0.0 6.0 0.00 0.00 0.00 90 1022.9
20240617053004 61 233 1.0 6.0 0.00 0.00 0.00 90 1023.1
20240617051507 61 123 0.0 9.0 0.00 0.00 0.00 90 1023.1
20240617051503 61 191 2.0 9.0 0.00 0.00 0.00 90 1024.2
20240617050005 61 192 3.0 9.0 0.00 0.00 0.00 89 1023.0
20240617044507 62 151 2.0 8.0 0.00 0.00 0.00 89 1022.9
20240617044503 62 169 3.0 8.0 0.00 0.00 0.00 89 1024.0
20240617043024 62 197 4.0 12.0 0.00 0.00 0.00 89 1023.8
20240617043006 62 180 2.0 12.0 0.00 0.00 0.00 89 1022.8
20240617041506 62 120 4.0 14.0 0.00 0.00 0.00 88 1022.8
20240617041504 62 197 4.0 14.0 0.00 0.00 0.00 88 1023.8
20240617040008 62 105 2.0 9.0 0.00 0.00 0.00 87 1022.9
20240617040004 63 158 3.0 9.0 0.00 0.00 0.00 87 1023.9
20240617034606 62 150 4.0 8.0 0.00 0.00 0.00 86 1022.9
20240617034524 63 168 3.0 8.0 0.00 0.00 0.00 86 1024.0
20240617033007 62 214 1.0 8.0 0.00 0.00 0.00 84 1022.9
20240617033003 63 155 2.0 8.0 0.00 0.00 0.00 84 1023.9
20240617031609 63 93 1.0 7.0 0.00 0.00 0.00 82 1022.9
20240617031504 63 167 2.0 7.0 0.00 0.00 0.00 82 1024.0
20240617030003 63 167 2.0 6.0 0.00 0.00 0.00 80 1023.7
20240617024507 63 149 3.0 8.0 0.00 0.00 0.00 77 1022.7
20240617024503 63 177 2.0 8.0 0.00 0.00 0.00 77 1023.7
20240617023009 62 110 1.0 4.0 0.00 0.00 0.00 76 1022.7
20240617023003 62 108 1.0 4.0 0.00 0.00 0.00 76 1023.9
20240617021505 63 218 0.0 1.0 0.00 0.00 0.00 74 1022.7
20240617021503 63 227 0.0 1.0 0.00 0.00 0.00 74 1023.7
20240617020009 62 115 0.0 0.0 0.00 0.00 0.00 74 1022.8
20240617020004 63 0 0.0 0.0 0.00 0.00 0.00 74 1023.8
20240617014506 63 115 0.0 0.0 0.00 0.00 0.00 73 1022.8
20240617014503 64 0 0.0 0.0 0.00 0.00 0.00 73 1023.7
20240617013103 64 115 0.0 0.0 0.00 0.00 0.00 71 1022.9
20240617013024 65 0 0.0 0.0 0.00 0.00 0.00 72 1023.9
20240617011524 66 118 0.0 1.0 0.00 0.00 0.00 69 1023.7
20240617010143 66 121 0.0 1.0 0.00 0.00 0.00 68 1022.4
20240617010003 66 121 0.0 1.0 0.00 0.00 0.00 67 1023.5
20240617004604 67 121 0.0 2.0 0.00 0.00 0.00 66 1022.2
20240617004524 67 121 0.0 2.0 0.00 0.00 0.00 66 1023.3
20240617003006 68 131 0.0 1.0 0.00 0.00 0.00 63 1022.1
20240617003003 69 132 0.0 1.0 0.00 0.00 0.00 63 1023.1
20240617001505 69 212 0.0 3.0 0.00 0.00 0.00 61 1022.2
20240617001503 70 202 1.0 3.0 0.00 0.00 0.00 61 1023.3
20240617000019 71 153 0.0 2.0 0.00 0.00 0.00 59 1022.3
20240617000004 71 179 0.0 2.0 0.00 0.00 0.00 59 1023.4
20240616234524 72 187 1.0 6.0 0.00 0.00 0.00 57 1023.3
20240616234505 71 173 0.0 6.0 0.00 0.00 0.00 57 1022.2
20240616233025 72 220 2.0 6.0 0.00 0.00 0.00 56 1023.3
20240616233006 72 222 1.0 6.0 0.00 0.00 0.00 56 1022.2
20240616231504 73 130 2.0 6.0 0.00 0.00 0.00 54 1022.1
20240616230004 74 229 4.0 9.0 0.00 0.00 0.00 54 1023.3
20240616224507 73 215 2.0 10.0 0.00 0.00 0.00 52 1022.4
20240616224503 74 202 4.0 10.0 0.00 0.00 0.00 52 1023.4
20240616223011 73 231 4.0 12.0 0.00 0.00 0.00 53 1022.5
20240616223003 74 227 5.0 12.0 0.00 0.00 0.00 53 1023.5
20240616221505 73 223 4.0 13.0 0.00 0.00 0.00 52 1022.4
20240616221503 74 236 6.0 13.0 0.00 0.00 0.00 52 1023.4
20240616220107 74 230 8.0 13.0 0.00 0.00 0.00 49 1022.2
20240616220003 74 231 4.0 12.0 0.00 0.00 0.00 49 1023.4
20240616214506 74 190 5.0 8.0 0.00 0.00 0.00 52 1022.1
20240616214503 75 219 4.0 8.0 0.00 0.00 0.00 52 1023.2
20240616213005 74 220 5.0 11.0 0.00 0.00 0.00 50 1022.1
20240616213003 74 228 4.0 11.0 0.00 0.00 0.00 50 1023.2
20240616211506 74 243 6.0 12.0 0.00 0.00 0.00 48 1022.4
20240616211503 74 231 5.0 12.0 0.00 0.00 0.00 48 1023.5
20240616210007 75 216 5.0 10.0 0.00 0.00 0.00 49 1022.6
20240616210003 75 238 3.0 10.0 0.00 0.00 0.00 49 1023.6
20240616204524 75 180 3.0 7.0 0.00 0.00 0.00 52 1023.7
20240616204506 75 179 3.0 7.0 0.00 0.00 0.00 52 1022.6
20240616203106 74 99 0.0 6.0 0.00 0.00 0.00 53 1022.8
20240616203024 74 193 1.0 6.0 0.00 0.00 0.00 53 1023.8
20240616201524 74 231 5.0 9.0 0.00 0.00 0.00 56 1024.1
20240616200010 74 101 1.0 5.0 0.00 0.00 0.00 56 1023.2
20240616200003 74 215 1.0 5.0 0.00 0.00 0.00 56 1024.2
20240616194512 74 255 0.0 5.0 0.00 0.00 0.00 56 1023.2
20240616194503 74 20 3.0 7.0 0.00 0.00 0.00 56 1024.2
20240616193003 73 52 4.0 8.0 0.00 0.00 0.00 59 1024.2
20240616191508 74 103 1.0 4.0 0.00 0.00 0.00 55 1023.3
20240616191503 74 299 1.0 4.0 0.00 0.00 0.00 57 1024.3
20240616190008 74 73 0.0 5.0 0.00 0.00 0.00 51 1023.5
20240616190003 75 238 1.0 5.0 0.00 0.00 0.00 51 1024.4
20240616184508 74 286 2.0 6.0 0.00 0.00 0.00 53 1023.7
20240616184504 74 229 3.0 6.0 0.00 0.00 0.00 53 1024.6
20240616183005 75 274 1.0 4.0 0.00 0.00 0.00 50 1023.9
20240616183003 76 162 0.0 4.0 0.00 0.00 0.00 50 1024.8
20240616181606 74 267 0.0 8.0 0.00 0.00 0.00 50 1023.8
20240616181524 74 111 4.0 8.0 0.00 0.00 0.00 50 1024.7
20240616180003 74 276 0.0 2.0 0.00 0.00 0.00 52 1024.9
20240616174604 73 193 1.0 5.0 0.00 0.00 0.00 50 1024.2
20240616174503 73 233 2.0 5.0 0.00 0.00 0.00 49 1025.1
20240616173008 73 294 0.0 3.0 0.00 0.00 0.00 48 1024.2
20240616173003 74 292 1.0 3.0 0.00 0.00 0.00 48 1025.2
20240616171506 74 342 1.0 6.0 0.00 0.00 0.00 51 1024.5
20240616171504 74 271 1.0 6.0 0.00 0.00 0.00 51 1025.2
20240616170006 73 236 0.0 6.0 0.00 0.00 0.00 51 1024.5
20240616170003 73 220 2.0 6.0 0.00 0.00 0.00 51 1025.4
20240616164505 74 37 0.0 2.0 0.00 0.00 0.00 48 1024.6
20240616164503 74 142 0.0 2.0 0.00 0.00 0.00 48 1025.4
20240616163003 72 119 2.0 5.0 0.00 0.00 0.00 53 1025.4
20240616161524 73 82 2.0 7.0 0.00 0.00 0.00 51 1025.6
20240616161506 72 60 4.0 7.0 0.00 0.00 0.00 51 1024.7
20240616160005 71 140 0.0 3.0 0.00 0.00 0.00 52 1024.8
20240616160003 71 58 1.0 3.0 0.00 0.00 0.00 52 1025.6
20240616154507 69 155 0.0 7.0 0.00 0.00 0.00 56 1024.8
20240616154503 69 84 2.0 7.0 0.00 0.00 0.00 56 1025.6
20240616153006 68 86 3.0 8.0 0.00 0.00 0.00 58 1024.8
20240616153003 68 65 3.0 8.0 0.00 0.00 0.00 58 1025.6
20240616151504 67 28 3.0 6.0 0.00 0.00 0.00 57 1024.8
20240616150023 67 87 3.0 6.0 0.00 0.00 0.00 62 1024.8
20240616150003 67 63 2.0 6.0 0.00 0.00 0.00 62 1025.7
20240616144504 65 66 0.0 5.0 0.00 0.00 0.00 64 1025.0
20240616143006 63 93 4.0 7.0 0.00 0.00 0.00 67 1025.1
20240616143003 63 63 3.0 7.0 0.00 0.00 0.00 67 1025.9
20240616141524 63 79 3.0 7.0 0.00 0.00 0.00 68 1026.0
20240616141511 62 33 4.0 7.0 0.00 0.00 0.00 68 1025.2
20240616140004 62 58 3.0 7.0 0.00 0.00 0.00 72 1025.9
20240616134504 61 55 2.0 7.0 0.00 0.00 0.00 74 1026.1
20240616133010 59 88 1.0 7.0 0.00 0.00 0.00 74 1025.5
20240616133003 60 62 3.0 7.0 0.00 0.00 0.00 74 1026.3
20240616131519 59 18 1.0 8.0 0.00 0.00 0.00 74 1025.5
20240616131503 59 44 3.0 8.0 0.00 0.00 0.00 74 1026.4
20240616130112 58 53 2.0 6.0 0.00 0.00 0.00 75 1025.6
20240616130003 58 66 3.0 6.0 0.00 0.00 0.00 73 1026.4
20240616124503 58 83 4.0 8.0 0.00 0.00 0.00 73 1026.6
20240616123003 57 65 3.0 7.0 0.00 0.00 0.00 77 1025.6
20240616121604 56 83 2.0 5.0 0.00 0.00 0.00 81 1025.6
20240616121503 56 52 2.0 5.0 0.00 0.00 0.00 80 1026.4
20240616120005 54 39 2.0 7.0 0.00 0.00 0.00 83 1025.3
20240616120003 55 57 3.0 7.0 0.00 0.00 0.00 83 1026.1
20240616114505 54 54 3.0 6.0 0.00 0.00 0.00 82 1025.3
20240616114503 54 56 2.0 6.0 0.00 0.00 0.00 82 1026.1
20240616113004 53 68 2.0 4.0 0.00 0.00 0.00 84 1025.2
20240616111506 53 58 1.0 2.0 0.00 0.00 0.00 85 1025.1
20240616111503 54 62 0.0 3.0 0.00 0.00 0.00 85 1025.9
20240616110011 52 63 0.0 1.0 0.00 0.00 0.00 87 1025.0
20240616110003 52 58 0.0 1.0 0.00 0.00 0.00 87 1025.7
20240616104520 51 57 0.0 1.0 0.00 0.00 0.00 87 1024.9
20240616104503 51 34 0.0 1.0 0.00 0.00 0.00 87 1025.6
20240616103005 50 233 0.0 0.0 0.00 0.00 0.00 91 1024.8
20240616103003 50 0 0.0 0.0 0.00 0.00 0.00 91 1025.5
20240616101504 48 233 0.0 0.0 0.00 0.00 0.00 93 1024.6
20240616100107 46 233 0.0 0.0 0.00 0.00 0.00 93 1024.6
20240616100003 46 0 0.0 0.0 0.00 0.00 0.00 93 1025.2